TimeCAT,TemperatureF,Dew PointF,Humidity,Sea Level PressureIn,VisibilityMPH,Wind Direction,Wind SpeedMPH,Gust SpeedMPH,PrecipitationIn,Events,Conditions,WindDirDegrees,DateUTC
1:00 AM,80.6,55.4,42,29.89,-9999.0,ESE,6.9,-,N/A,,Clear,120,2013-02-19 23:00:00
3:00 AM,77.0,59.0,54,29.89,-9999.0,Calm,Calm,-,N/A,,Clear,0,2013-02-20 01:00:00
4:00 AM,73.4,60.8,65,29.89,-9999.0,Variable,1.2,-,N/A,,Clear,0,2013-02-20 02:00:00
5:00 AM,73.4,60.8,65,29.89,-9999.0,Variable,2.3,-,N/A,,Clear,0,2013-02-20 03:00:00
6:00 AM,75.2,59.0,57,29.92,-9999.0,SSW,8.1,-,N/A,,Clear,210,2013-02-20 04:00:00
7:00 AM,78.8,55.4,44,29.92,-9999.0,SSW,8.1,-,N/A,,Clear,210,2013-02-20 05:00:00
8:00 AM,80.6,57.2,45,29.95,-9999.0,ESE,6.9,-,N/A,,Clear,120,2013-02-20 06:00:00
9:00 AM,80.6,59.0,48,29.98,-9999.0,WSW,11.5,-,N/A,,Clear,250,2013-02-20 07:00:00
10:00 AM,87.8,51.8,29,29.98,-9999.0,SSW,12.7,-,N/A,,Clear,210,2013-02-20 08:00:00
11:00 AM,89.6,51.8,27,29.98,-9999.0,SSW,9.2,-,N/A,,Clear,211,2013-02-20 09:00:00
12:00 PM,89.6,50.0,26,29.98,-9999.0,SSW,12.7,-,N/A,,Clear,210,2013-02-20 10:00:00
1:00 PM,89.6,51.8,27,29.95,6.2,South,12.7,-,N/A,,Partly Cloudy,190,2013-02-20 11:00:00
2:00 PM,86.0,50.0,29,30.21,6.2,SSW,12.7,-,N/A,,Mostly Cloudy,200,2013-02-20 12:00:00
3:00 PM,86.0,50.0,29,29.92,6.2,SSW,13.8,-,N/A,,Mostly Cloudy,210,2013-02-20 13:00:00
4:00 PM,86.0,51.8,31,29.89,6.2,SSW,10.4,-,N/A,,Mostly Cloudy,210,2013-02-20 14:00:00
5:00 PM,86.0,51.8,31,29.89,6.2,SW,9.2,-,N/A,,Mostly Cloudy,230,2013-02-20 15:00:00
6:00 PM,86.0,51.8,31,29.89,6.2,WSW,5.8,-,N/A,,Mostly Cloudy,240,2013-02-20 16:00:00
7:00 PM,82.4,55.4,39,29.92,6.2,SSW,4.6,-,N/A,,Mostly Cloudy,210,2013-02-20 17:00:00
8:00 PM,77.0,55.4,47,29.92,6.2,West,3.5,-,N/A,,Mostly Cloudy,260,2013-02-20 18:00:00
9:00 PM,82.4,55.4,39,29.95,-9999.0,SSW,6.9,-,N/A,,Clear,200,2013-02-20 19:00:00
10:00 PM,80.6,57.2,45,29.95,-9999.0,South,4.6,-,N/A,,Clear,180,2013-02-20 20:00:00
11:00 PM,-9999,-9999,N/A,29.98,-9999.0,SSE,5.8,-,N/A,,Clear,160,2013-02-20 21:00:00